Year,Month,Day,Hour,Minute,Value (Times are PST for temperature in C)
2016,05,25,00,00,13.90
2016,05,25,00,01,13.90
2016,05,25,00,02,13.90
2016,05,25,00,03,13.90
2016,05,25,00,04,13.90
2016,05,25,00,05,13.90
2016,05,25,00,06,13.90
2016,05,25,00,07,13.90
2016,05,25,00,08,13.90
2016,05,25,00,09,13.90
2016,05,25,00,10,13.80
2016,05,25,00,11,13.80
2016,05,25,00,12,13.80
2016,05,25,00,13,13.80
2016,05,25,00,14,13.80
2016,05,25,00,15,13.80
2016,05,25,00,16,13.80
2016,05,25,00,17,13.80
2016,05,25,00,18,13.80
2016,05,25,00,19,13.80
2016,05,25,00,20,13.80
2016,05,25,00,21,13.90
2016,05,25,00,22,13.90
2016,05,25,00,23,13.90
2016,05,25,00,24,13.90
2016,05,25,00,25,13.90
2016,05,25,00,26,13.90
2016,05,25,00,27,13.90
2016,05,25,00,28,13.80
2016,05,25,00,29,13.80
2016,05,25,00,30,13.80
2016,05,25,00,31,13.80
2016,05,25,00,32,13.80
2016,05,25,00,33,13.80
2016,05,25,00,34,13.80
2016,05,25,00,35,13.80
2016,05,25,00,36,13.90
2016,05,25,00,37,13.90
2016,05,25,00,38,13.90
2016,05,25,00,39,13.90
2016,05,25,00,40,13.90
2016,05,25,00,41,13.90
2016,05,25,00,42,13.90
2016,05,25,00,43,13.90
2016,05,25,00,44,13.90
2016,05,25,00,45,13.90
2016,05,25,00,46,13.90
2016,05,25,00,47,13.90
2016,05,25,00,48,13.90
2016,05,25,00,49,13.90
2016,05,25,00,50,13.90
2016,05,25,00,51,13.90
2016,05,25,00,52,13.90
2016,05,25,00,53,13.90
2016,05,25,00,54,13.90
2016,05,25,00,55,13.90
2016,05,25,00,56,13.90
2016,05,25,00,57,14.00
2016,05,25,00,58,14.00
2016,05,25,00,59,14.00
2016,05,25,01,00,14.00
2016,05,25,01,01,14.10
2016,05,25,01,02,14.10
2016,05,25,01,03,14.10
2016,05,25,01,04,14.20
2016,05,25,01,05,14.20
2016,05,25,01,06,14.20
2016,05,25,01,07,14.20
2016,05,25,01,08,14.20
2016,05,25,01,09,14.30
2016,05,25,01,10,14.30
2016,05,25,01,11,14.30
2016,05,25,01,12,14.30
2016,05,25,01,13,14.30
2016,05,25,01,14,14.40
2016,05,25,01,15,14.40
2016,05,25,01,16,14.40
2016,05,25,01,17,14.40
2016,05,25,01,18,14.40
2016,05,25,01,19,14.50
2016,05,25,01,20,14.50
2016,05,25,01,21,14.50
2016,05,25,01,22,14.60
2016,05,25,01,23,14.60
2016,05,25,01,24,14.60
2016,05,25,01,25,14.70
2016,05,25,01,26,14.70
2016,05,25,01,27,14.70
2016,05,25,01,28,14.70
2016,05,25,01,29,14.70
2016,05,25,01,30,14.80
2016,05,25,01,31,14.80
2016,05,25,01,32,14.80
2016,05,25,01,33,14.80
2016,05,25,01,34,14.90
2016,05,25,01,35,14.90
2016,05,25,01,36,14.90
2016,05,25,01,37,14.90
2016,05,25,01,38,14.90
2016,05,25,01,39,15.00
2016,05,25,01,40,15.00
2016,05,25,01,41,15.00
2016,05,25,01,42,15.00
2016,05,25,01,43,15.00
2016,05,25,01,44,15.10
2016,05,25,01,45,15.10
2016,05,25,01,46,15.10
2016,05,25,01,47,15.10
2016,05,25,01,48,15.10
2016,05,25,01,49,15.10
2016,05,25,01,50,15.10
2016,05,25,01,51,15.10
2016,05,25,01,52,15.10
2016,05,25,01,53,15.10
2016,05,25,01,54,15.10
2016,05,25,01,55,15.10
2016,05,25,01,56,15.10
2016,05,25,01,57,15.10
2016,05,25,01,58,15.10
2016,05,25,01,59,15.10
2016,05,25,02,00,15.10
2016,05,25,02,01,15.10
2016,05,25,02,02,15.00
2016,05,25,02,03,15.00
2016,05,25,02,04,15.00
2016,05,25,02,05,15.00
2016,05,25,02,06,15.00
2016,05,25,02,07,14.90
2016,05,25,02,08,14.90
2016,05,25,02,09,14.90
2016,05,25,02,10,14.90
2016,05,25,02,11,14.90
2016,05,25,02,12,14.90
2016,05,25,02,13,14.80
2016,05,25,02,14,14.80
2016,05,25,02,15,14.80
2016,05,25,02,16,14.80
2016,05,25,02,17,14.80
2016,05,25,02,18,14.70
2016,05,25,02,19,14.70
2016,05,25,02,20,14.70
2016,05,25,02,21,14.70
2016,05,25,02,22,14.70
2016,05,25,02,23,14.70
2016,05,25,02,24,14.60
2016,05,25,02,25,14.60
2016,05,25,02,26,14.60
2016,05,25,02,27,14.60
2016,05,25,02,28,14.60
2016,05,25,02,29,14.60
2016,05,25,02,30,14.50
2016,05,25,02,31,14.50
2016,05,25,02,32,14.50
2016,05,25,02,33,14.50
2016,05,25,02,34,14.40
2016,05,25,02,35,14.40
2016,05,25,02,36,14.40
2016,05,25,02,37,14.40
2016,05,25,02,38,14.40
2016,05,25,02,39,14.40
2016,05,25,02,40,14.40
2016,05,25,02,41,14.40
2016,05,25,02,42,14.40
2016,05,25,02,43,14.40
2016,05,25,02,44,14.40
2016,05,25,02,45,14.30
2016,05,25,02,46,14.30
2016,05,25,02,47,14.30
2016,05,25,02,48,14.30
2016,05,25,02,49,14.30
2016,05,25,02,50,14.30
2016,05,25,02,51,14.30
2016,05,25,02,52,14.30
2016,05,25,02,53,14.30
2016,05,25,02,54,14.30
2016,05,25,02,55,14.30
2016,05,25,02,56,14.30
2016,05,25,02,57,14.30
2016,05,25,02,58,14.30
2016,05,25,02,59,14.30
2016,05,25,03,00,14.30
2016,05,25,03,01,14.30
2016,05,25,03,02,14.20
2016,05,25,03,03,14.20
2016,05,25,03,04,14.20
2016,05,25,03,05,14.20
2016,05,25,03,06,14.20
2016,05,25,03,07,14.20
2016,05,25,03,08,14.20
2016,05,25,03,09,14.20
2016,05,25,03,10,14.20
2016,05,25,03,11,14.20
2016,05,25,03,12,14.20
2016,05,25,03,13,14.20
2016,05,25,03,14,14.20
2016,05,25,03,15,14.20
2016,05,25,03,16,14.10
2016,05,25,03,17,14.10
2016,05,25,03,18,14.10
2016,05,25,03,19,14.10
2016,05,25,03,20,14.10
2016,05,25,03,21,14.10
2016,05,25,03,22,14.10
2016,05,25,03,23,14.10
2016,05,25,03,24,14.00
2016,05,25,03,25,14.00
2016,05,25,03,26,14.00
2016,05,25,03,27,14.00
2016,05,25,03,28,14.00
2016,05,25,03,29,13.90
2016,05,25,03,30,13.90
2016,05,25,03,31,13.90
2016,05,25,03,32,13.90
2016,05,25,03,33,13.80
2016,05,25,03,34,13.80
2016,05,25,03,35,13.80
2016,05,25,03,36,13.80
2016,05,25,03,37,13.80
2016,05,25,03,38,13.80
2016,05,25,03,39,13.70
2016,05,25,03,40,13.70
2016,05,25,03,41,13.70
2016,05,25,03,42,13.70
2016,05,25,03,43,13.70
2016,05,25,03,44,13.70
2016,05,25,03,45,13.70
2016,05,25,03,46,13.60
2016,05,25,03,47,13.60
2016,05,25,03,48,13.60
2016,05,25,03,49,13.50
2016,05,25,03,50,13.50
2016,05,25,03,51,13.50
2016,05,25,03,52,13.40
2016,05,25,03,53,13.40
2016,05,25,03,54,13.40
2016,05,25,03,55,13.40
2016,05,25,03,56,13.40
2016,05,25,03,57,13.30
2016,05,25,03,58,13.30
2016,05,25,03,59,13.30
2016,05,25,04,00,13.30
2016,05,25,04,01,13.20
2016,05,25,04,02,13.20
2016,05,25,04,03,13.20
2016,05,25,04,04,13.20
2016,05,25,04,05,13.20
2016,05,25,04,06,13.20
2016,05,25,04,07,13.10
2016,05,25,04,08,13.10
2016,05,25,04,09,13.10
2016,05,25,04,10,13.10
2016,05,25,04,11,13.10
2016,05,25,04,12,13.10
2016,05,25,04,13,13.00
2016,05,25,04,14,13.00
2016,05,25,04,15,13.00
2016,05,25,04,16,13.00
2016,05,25,04,17,13.00
2016,05,25,04,18,13.00
2016,05,25,04,19,12.90
2016,05,25,04,20,12.90
2016,05,25,04,21,12.90
2016,05,25,04,22,12.90
2016,05,25,04,23,12.90
2016,05,25,04,24,12.90
2016,05,25,04,25,12.90
2016,05,25,04,26,12.90
2016,05,25,04,27,12.90
2016,05,25,04,28,12.90
2016,05,25,04,29,12.90
2016,05,25,04,30,12.90
2016,05,25,04,31,12.90
2016,05,25,04,32,12.90
2016,05,25,04,33,12.90
2016,05,25,04,34,12.90
2016,05,25,04,35,12.90
2016,05,25,04,36,12.90
2016,05,25,04,37,12.80
2016,05,25,04,38,12.80
2016,05,25,04,39,12.80
2016,05,25,04,40,12.80
2016,05,25,04,41,12.80
2016,05,25,04,42,12.80
2016,05,25,04,43,12.80
2016,05,25,04,44,12.70
2016,05,25,04,45,12.70
2016,05,25,04,46,12.70
2016,05,25,04,47,12.70
2016,05,25,04,48,12.60
2016,05,25,04,49,12.60
2016,05,25,04,50,12.60
2016,05,25,04,51,12.60
2016,05,25,04,52,12.60
2016,05,25,04,53,12.50
2016,05,25,04,54,12.50
2016,05,25,04,55,12.50
2016,05,25,04,56,12.50
2016,05,25,04,57,12.50
2016,05,25,04,58,12.40
2016,05,25,04,59,12.40
2016,05,25,05,00,12.40
2016,05,25,05,01,12.40
2016,05,25,05,02,12.40
2016,05,25,05,03,12.40
2016,05,25,05,04,12.40
2016,05,25,05,05,12.40
2016,05,25,05,06,12.30
2016,05,25,05,07,12.30
2016,05,25,05,08,12.30
2016,05,25,05,09,12.30
2016,05,25,05,10,12.30
2016,05,25,05,11,12.30
2016,05,25,05,12,12.30
2016,05,25,05,13,12.20
2016,05,25,05,14,12.20
2016,05,25,05,15,12.20
2016,05,25,05,16,12.20
2016,05,25,05,17,12.20
2016,05,25,05,18,12.20
2016,05,25,05,19,12.20
2016,05,25,05,20,12.10
2016,05,25,05,21,12.10
2016,05,25,05,22,12.10
2016,05,25,05,23,12.10
2016,05,25,05,24,12.10
2016,05,25,05,25,12.10
2016,05,25,05,26,12.10
2016,05,25,05,27,12.00
2016,05,25,05,28,12.00
2016,05,25,05,29,12.00
2016,05,25,05,30,11.90
2016,05,25,05,31,11.90
2016,05,25,05,32,11.90
2016,05,25,05,33,11.90
2016,05,25,05,34,11.90
2016,05,25,05,35,11.80
2016,05,25,05,36,11.80
2016,05,25,05,37,11.80
2016,05,25,05,38,11.80
2016,05,25,05,39,11.80
2016,05,25,05,40,11.80
2016,05,25,05,41,11.80
2016,05,25,05,42,11.70
2016,05,25,05,43,11.70
2016,05,25,05,44,11.70
2016,05,25,05,45,11.70
2016,05,25,05,46,11.70
2016,05,25,05,47,11.70
2016,05,25,05,48,11.70
2016,05,25,05,49,11.70
2016,05,25,05,50,11.70
2016,05,25,05,51,11.70
2016,05,25,05,52,11.70
2016,05,25,05,53,11.70
2016,05,25,05,54,11.70
2016,05,25,05,55,11.70
2016,05,25,05,56,11.70
2016,05,25,05,57,11.70
2016,05,25,05,58,11.70
2016,05,25,05,59,11.70
2016,05,25,06,00,11.70
2016,05,25,06,01,11.70
2016,05,25,06,02,11.70
2016,05,25,06,03,11.70
2016,05,25,06,04,11.70
2016,05,25,06,05,11.70
2016,05,25,06,06,11.70
2016,05,25,06,07,11.70
2016,05,25,06,08,11.70
2016,05,25,06,09,11.70
2016,05,25,06,10,11.70
2016,05,25,06,11,11.70
2016,05,25,06,12,11.70
2016,05,25,06,13,11.70
2016,05,25,06,14,11.70
2016,05,25,06,15,11.70
2016,05,25,06,16,11.70
2016,05,25,06,17,11.70
2016,05,25,06,18,11.70
2016,05,25,06,19,11.70
2016,05,25,06,20,11.70
2016,05,25,06,21,11.70
2016,05,25,06,22,11.60
2016,05,25,06,23,11.60
2016,05,25,06,24,11.60
2016,05,25,06,25,11.60
2016,05,25,06,26,11.60
2016,05,25,06,27,11.60
2016,05,25,06,28,11.60
2016,05,25,06,29,11.60
2016,05,25,06,30,11.60
2016,05,25,06,31,11.60
2016,05,25,06,32,11.60
2016,05,25,06,33,11.60
2016,05,25,06,34,11.50
2016,05,25,06,35,11.50
2016,05,25,06,36,11.50
2016,05,25,06,37,11.50
2016,05,25,06,38,11.50
2016,05,25,06,39,11.50
2016,05,25,06,40,11.50
2016,05,25,06,41,11.50
2016,05,25,06,42,11.50
2016,05,25,06,43,11.50
2016,05,25,06,44,11.60
2016,05,25,06,45,11.60
2016,05,25,06,46,11.60
2016,05,25,06,47,11.60
2016,05,25,06,48,11.60
2016,05,25,06,49,11.60
2016,05,25,06,50,11.60
2016,05,25,06,51,11.60
2016,05,25,06,52,11.60
2016,05,25,06,53,11.60
2016,05,25,06,54,11.60
2016,05,25,06,55,11.70
2016,05,25,06,56,11.70
2016,05,25,06,57,11.70
2016,05,25,06,58,11.70
2016,05,25,06,59,11.70
2016,05,25,07,00,11.70
2016,05,25,07,01,11.70
2016,05,25,07,02,11.70
2016,05,25,07,03,11.80
2016,05,25,07,04,11.80
2016,05,25,07,05,11.80
2016,05,25,07,06,11.80
2016,05,25,07,07,11.80
2016,05,25,07,08,11.80
2016,05,25,07,09,11.80
2016,05,25,07,10,11.80
2016,05,25,07,11,11.80
2016,05,25,07,12,11.90
2016,05,25,07,13,11.90
2016,05,25,07,14,11.90
2016,05,25,07,15,11.90
2016,05,25,07,16,11.90
2016,05,25,07,17,11.90
2016,05,25,07,18,12.00
2016,05,25,07,19,12.00
2016,05,25,07,20,12.00
2016,05,25,07,21,12.10
2016,05,25,07,22,12.10
2016,05,25,07,23,12.10
2016,05,25,07,24,12.10
2016,05,25,07,25,12.10
2016,05,25,07,26,12.20
2016,05,25,07,27,12.20
2016,05,25,07,28,12.20
2016,05,25,07,29,12.20
2016,05,25,07,30,12.20
2016,05,25,07,31,12.30
2016,05,25,07,32,12.30
2016,05,25,07,33,12.30
2016,05,25,07,34,12.30
2016,05,25,07,35,12.30
2016,05,25,07,36,12.30
2016,05,25,07,37,12.40
2016,05,25,07,38,12.40
2016,05,25,07,39,12.40
2016,05,25,07,40,12.40
2016,05,25,07,41,12.40
2016,05,25,07,42,12.40
2016,05,25,07,43,12.40
2016,05,25,07,44,12.50
2016,05,25,07,45,12.50
2016,05,25,07,46,12.50
2016,05,25,07,47,12.60
2016,05,25,07,48,12.60
2016,05,25,07,49,12.60
2016,05,25,07,50,12.60
2016,05,25,07,51,12.60
2016,05,25,07,52,12.70
2016,05,25,07,53,12.70
2016,05,25,07,54,12.70
2016,05,25,07,55,12.70
2016,05,25,07,56,12.70
2016,05,25,07,57,12.70
2016,05,25,07,58,12.70
2016,05,25,07,59,12.80
2016,05,25,08,00,12.80
2016,05,25,08,01,12.80
2016,05,25,08,02,12.80
2016,05,25,08,03,12.80
2016,05,25,08,04,12.80
2016,05,25,08,05,12.80
2016,05,25,08,06,12.80
2016,05,25,08,07,12.90
2016,05,25,08,08,12.90
2016,05,25,08,09,12.90
2016,05,25,08,10,12.90
2016,05,25,08,11,12.90
2016,05,25,08,12,12.80
2016,05,25,08,13,12.80
2016,05,25,08,14,12.80
2016,05,25,08,15,12.80
2016,05,25,08,16,12.80
2016,05,25,08,17,12.80
2016,05,25,08,18,12.80
2016,05,25,08,19,12.80
2016,05,25,08,20,12.90
2016,05,25,08,21,12.90
2016,05,25,08,22,12.90
2016,05,25,08,23,12.90
2016,05,25,08,24,13.00
2016,05,25,08,25,13.00
2016,05,25,08,26,13.00
2016,05,25,08,27,13.10
2016,05,25,08,28,13.10
2016,05,25,08,29,13.20
2016,05,25,08,30,13.20
2016,05,25,08,31,13.30
2016,05,25,08,32,13.30
2016,05,25,08,33,13.30
2016,05,25,08,34,13.40
2016,05,25,08,35,13.30
2016,05,25,08,36,13.30
2016,05,25,08,37,13.30
2016,05,25,08,38,13.30
2016,05,25,08,39,13.30
2016,05,25,08,40,13.30
2016,05,25,08,41,13.30
2016,05,25,08,42,13.40
2016,05,25,08,43,13.40
2016,05,25,08,44,13.40
2016,05,25,08,45,13.40
2016,05,25,08,46,13.40
2016,05,25,08,47,13.40
2016,05,25,08,48,13.40
2016,05,25,08,49,13.50
2016,05,25,08,50,13.40
2016,05,25,08,51,13.40
2016,05,25,08,52,13.50
2016,05,25,08,53,13.50
2016,05,25,08,54,13.50
2016,05,25,08,55,13.50
2016,05,25,08,56,13.60
2016,05,25,08,57,13.70
2016,05,25,08,58,13.70
2016,05,25,08,59,13.60
2016,05,25,09,00,13.60
2016,05,25,09,01,13.60
2016,05,25,09,02,13.70
2016,05,25,09,03,13.70
2016,05,25,09,04,13.70
2016,05,25,09,05,13.80
2016,05,25,09,06,13.80
2016,05,25,09,07,13.80
2016,05,25,09,08,13.80
2016,05,25,09,09,13.90
2016,05,25,09,10,13.80
2016,05,25,09,11,13.80
2016,05,25,09,12,13.80
2016,05,25,09,13,13.80
2016,05,25,09,14,13.80
2016,05,25,09,15,13.80
2016,05,25,09,16,13.90
2016,05,25,09,17,13.90
2016,05,25,09,18,13.90
2016,05,25,09,19,13.90
2016,05,25,09,20,13.90
2016,05,25,09,21,13.90
2016,05,25,09,22,13.90
2016,05,25,09,23,14.00
2016,05,25,09,24,14.00
2016,05,25,09,25,14.00
2016,05,25,09,26,14.10
2016,05,25,09,27,14.10
2016,05,25,09,28,14.10
2016,05,25,09,29,14.10
2016,05,25,09,30,14.00
2016,05,25,09,31,14.00
2016,05,25,09,32,13.90
2016,05,25,09,33,13.90
2016,05,25,09,34,13.90
2016,05,25,09,35,13.90
2016,05,25,09,36,14.00
2016,05,25,09,37,14.00
2016,05,25,09,38,14.10
2016,05,25,09,39,14.10
2016,05,25,09,40,14.20
2016,05,25,09,41,14.20
2016,05,25,09,42,14.20
2016,05,25,09,43,14.20
2016,05,25,09,44,14.20
2016,05,25,09,45,14.20
2016,05,25,09,46,14.20
2016,05,25,09,47,14.20
2016,05,25,09,48,14.20
2016,05,25,09,49,14.30
2016,05,25,09,50,14.30
2016,05,25,09,51,14.30
2016,05,25,09,52,14.30
2016,05,25,09,53,14.30
2016,05,25,09,54,14.40
2016,05,25,09,55,14.40
2016,05,25,09,56,14.40
2016,05,25,09,57,14.30
2016,05,25,09,58,14.30
2016,05,25,09,59,14.30
2016,05,25,10,00,14.30
2016,05,25,10,01,14.30
2016,05,25,10,02,14.30
2016,05,25,10,03,14.30
2016,05,25,10,04,14.30
2016,05,25,10,05,14.30
2016,05,25,10,06,14.30
2016,05,25,10,07,14.30
2016,05,25,10,08,14.30
2016,05,25,10,09,14.20
2016,05,25,10,10,14.20
2016,05,25,10,11,14.20
2016,05,25,10,12,14.30
2016,05,25,10,13,14.30
2016,05,25,10,14,14.30
2016,05,25,10,15,14.40
2016,05,25,10,16,14.50
2016,05,25,10,17,14.60
2016,05,25,10,18,14.60
2016,05,25,10,19,14.60
2016,05,25,10,20,14.60
2016,05,25,10,21,14.70
2016,05,25,10,22,14.70
2016,05,25,10,23,14.70
2016,05,25,10,24,14.70
2016,05,25,10,25,14.70
2016,05,25,10,26,14.70
2016,05,25,10,27,14.70
2016,05,25,10,28,14.70
2016,05,25,10,29,14.80
2016,05,25,10,30,14.80
2016,05,25,10,31,14.80
2016,05,25,10,32,14.80
2016,05,25,10,33,14.80
2016,05,25,10,34,14.90
2016,05,25,10,35,14.90
2016,05,25,10,36,14.90
2016,05,25,10,37,15.00
2016,05,25,10,38,15.00
2016,05,25,10,39,15.00
2016,05,25,10,40,15.00
2016,05,25,10,41,15.00
2016,05,25,10,42,15.00
2016,05,25,10,43,15.10
2016,05,25,10,44,15.10
2016,05,25,10,45,15.10
2016,05,25,10,46,15.10
2016,05,25,10,47,15.10
2016,05,25,10,48,15.10
2016,05,25,10,49,15.10
2016,05,25,10,50,15.10
2016,05,25,10,51,15.10
2016,05,25,10,52,15.10
2016,05,25,10,53,15.10
2016,05,25,10,54,15.10
2016,05,25,10,55,15.00
2016,05,25,10,56,15.00
2016,05,25,10,57,15.00
2016,05,25,10,58,15.10
2016,05,25,10,59,15.10
2016,05,25,11,00,15.00
2016,05,25,11,01,15.00
2016,05,25,11,02,15.10
2016,05,25,11,03,15.10
2016,05,25,11,04,15.10
2016,05,25,11,05,15.10
2016,05,25,11,06,15.10
2016,05,25,11,07,15.10
2016,05,25,11,08,15.10
2016,05,25,11,09,15.20
2016,05,25,11,10,15.20
2016,05,25,11,11,15.30
2016,05,25,11,12,15.30
2016,05,25,11,13,15.30
2016,05,25,11,14,15.30
2016,05,25,11,15,15.30
2016,05,25,11,16,15.20
2016,05,25,11,17,15.20
2016,05,25,11,18,15.30
2016,05,25,11,19,15.30
2016,05,25,11,20,15.40
2016,05,25,11,21,15.50
2016,05,25,11,22,15.60
2016,05,25,11,23,15.60
2016,05,25,11,24,15.60
2016,05,25,11,25,15.60
2016,05,25,11,26,15.60
2016,05,25,11,27,15.60
2016,05,25,11,28,15.60
2016,05,25,11,29,15.60
2016,05,25,11,30,15.60
2016,05,25,11,31,15.60
2016,05,25,11,32,15.70
2016,05,25,11,33,15.70
2016,05,25,11,34,15.80
2016,05,25,11,35,15.80
2016,05,25,11,36,15.90
2016,05,25,11,37,15.90
2016,05,25,11,38,15.90
2016,05,25,11,39,15.90
2016,05,25,11,40,16.00
2016,05,25,11,41,16.00
2016,05,25,11,42,16.10
2016,05,25,11,43,16.10
2016,05,25,11,44,16.10
2016,05,25,11,45,16.00
2016,05,25,11,46,15.90
2016,05,25,11,47,15.90
2016,05,25,11,48,15.90
2016,05,25,11,49,16.00
2016,05,25,11,50,16.10
2016,05,25,11,51,16.10
2016,05,25,11,52,16.20
2016,05,25,11,53,16.10
2016,05,25,11,54,16.10
2016,05,25,11,55,16.10
2016,05,25,11,56,16.00
2016,05,25,11,57,16.00
2016,05,25,11,58,16.00
2016,05,25,11,59,15.90
2016,05,25,12,00,15.90
2016,05,25,12,01,15.90
2016,05,25,12,02,15.90
2016,05,25,12,03,15.90
2016,05,25,12,04,15.90
2016,05,25,12,05,15.90
2016,05,25,12,06,15.90
2016,05,25,12,07,15.90
2016,05,25,12,08,15.90
2016,05,25,12,09,15.90
2016,05,25,12,10,15.80
2016,05,25,12,11,15.80
2016,05,25,12,12,15.90
2016,05,25,12,13,16.00
2016,05,25,12,14,16.00
2016,05,25,12,15,16.10
2016,05,25,12,16,16.10
2016,05,25,12,17,16.00
2016,05,25,12,18,16.00
2016,05,25,12,19,16.00
2016,05,25,12,20,16.10
2016,05,25,12,21,16.10
2016,05,25,12,22,16.10
2016,05,25,12,23,16.20
2016,05,25,12,24,16.20
2016,05,25,12,25,16.20
2016,05,25,12,26,16.20
2016,05,25,12,27,16.40
2016,05,25,12,28,16.50
2016,05,25,12,29,16.70
2016,05,25,12,30,16.70
2016,05,25,12,31,16.60
2016,05,25,12,32,16.50
2016,05,25,12,33,16.40
2016,05,25,12,34,16.30
2016,05,25,12,35,16.40
2016,05,25,12,36,16.40
2016,05,25,12,37,16.50
2016,05,25,12,38,16.50
2016,05,25,12,39,16.40
2016,05,25,12,40,16.20
2016,05,25,12,41,16.20
2016,05,25,12,42,16.10
2016,05,25,12,43,16.10
2016,05,25,12,44,16.10
2016,05,25,12,45,16.10
2016,05,25,12,46,16.10
2016,05,25,12,47,16.10
2016,05,25,12,48,16.20
2016,05,25,12,49,16.20
2016,05,25,12,50,16.20
2016,05,25,12,51,16.20
2016,05,25,12,52,16.20
2016,05,25,12,53,16.30
2016,05,25,12,54,16.30
2016,05,25,12,55,16.50
2016,05,25,12,56,16.60
2016,05,25,12,57,16.60
2016,05,25,12,58,16.60
2016,05,25,12,59,16.70
2016,05,25,13,00,16.70
2016,05,25,13,01,16.80
2016,05,25,13,02,16.90
2016,05,25,13,03,17.00
2016,05,25,13,04,17.10
2016,05,25,13,05,17.20
2016,05,25,13,06,17.20
2016,05,25,13,07,17.20
2016,05,25,13,08,17.30
2016,05,25,13,09,17.40
2016,05,25,13,10,17.50
2016,05,25,13,11,17.50
2016,05,25,13,12,17.60
2016,05,25,13,13,17.60
2016,05,25,13,14,17.60
2016,05,25,13,15,17.60
2016,05,25,13,16,17.60
2016,05,25,13,17,17.60
2016,05,25,13,18,17.60
2016,05,25,13,19,17.60
2016,05,25,13,20,17.60
2016,05,25,13,21,17.60
2016,05,25,13,22,17.60
2016,05,25,13,23,17.60
2016,05,25,13,24,17.60
2016,05,25,13,25,17.60
2016,05,25,13,26,17.50
2016,05,25,13,27,17.40
2016,05,25,13,28,17.40
2016,05,25,13,29,17.50
2016,05,25,13,30,17.60
2016,05,25,13,31,17.60
2016,05,25,13,32,17.70
2016,05,25,13,33,17.70
2016,05,25,13,34,17.80
2016,05,25,13,35,17.80
2016,05,25,13,36,17.80
2016,05,25,13,37,17.80
2016,05,25,13,38,17.80
2016,05,25,13,39,17.80
2016,05,25,13,40,17.90
2016,05,25,13,41,17.90
2016,05,25,13,42,17.90
2016,05,25,13,43,17.90
2016,05,25,13,44,17.90
2016,05,25,13,45,17.90
2016,05,25,13,46,18.00
2016,05,25,13,47,18.00
2016,05,25,13,48,18.10
2016,05,25,13,49,18.20
2016,05,25,13,50,18.30
2016,05,25,13,51,18.40
2016,05,25,13,52,18.50
2016,05,25,13,53,18.50
2016,05,25,13,54,18.50
2016,05,25,13,55,18.60
2016,05,25,13,56,18.60
2016,05,25,13,57,18.70
2016,05,25,13,58,18.80
2016,05,25,13,59,18.80
2016,05,25,14,00,18.90
2016,05,25,14,01,18.80
2016,05,25,14,02,18.70
2016,05,25,14,03,18.60
2016,05,25,14,04,18.50
2016,05,25,14,05,18.40
2016,05,25,14,06,18.30
2016,05,25,14,07,18.30
2016,05,25,14,08,18.40
2016,05,25,14,09,18.50
2016,05,25,14,10,18.50
2016,05,25,14,11,18.70
2016,05,25,14,12,18.80
2016,05,25,14,13,19.00
2016,05,25,14,14,19.20
2016,05,25,14,15,19.10
2016,05,25,14,16,19.10
2016,05,25,14,17,19.10
2016,05,25,14,18,19.10
2016,05,25,14,19,19.10
2016,05,25,14,20,19.00
2016,05,25,14,21,18.90
2016,05,25,14,22,18.90
2016,05,25,14,23,18.80
2016,05,25,14,24,18.80
2016,05,25,14,25,18.70
2016,05,25,14,26,18.70
2016,05,25,14,27,18.70
2016,05,25,14,28,18.80
2016,05,25,14,29,18.90
2016,05,25,14,30,19.00
2016,05,25,14,31,19.20
2016,05,25,14,32,19.30
2016,05,25,14,33,19.40
2016,05,25,14,34,19.50
2016,05,25,14,35,19.60
2016,05,25,14,36,19.60
2016,05,25,14,37,19.70
2016,05,25,14,38,19.70
2016,05,25,14,39,19.70
2016,05,25,14,40,19.70
2016,05,25,14,41,19.60
2016,05,25,14,42,19.60
2016,05,25,14,43,19.70
2016,05,25,14,44,19.70
2016,05,25,14,45,19.80
2016,05,25,14,46,20.00
2016,05,25,14,47,20.10
2016,05,25,14,48,20.20
2016,05,25,14,49,20.30
2016,05,25,14,50,20.30
2016,05,25,14,51,20.30
2016,05,25,14,52,20.30
2016,05,25,14,53,20.30
2016,05,25,14,54,20.30
2016,05,25,14,55,20.30
2016,05,25,14,56,20.40
2016,05,25,14,57,20.50
2016,05,25,14,58,20.50
2016,05,25,14,59,20.60
2016,05,25,15,00,20.70
2016,05,25,15,01,20.90
2016,05,25,15,02,21.00
2016,05,25,15,03,21.10
2016,05,25,15,04,21.20
2016,05,25,15,05,21.30
2016,05,25,15,06,21.30
2016,05,25,15,07,21.40
2016,05,25,15,08,21.40
2016,05,25,15,09,21.50
2016,05,25,15,10,21.70
2016,05,25,15,11,21.80
2016,05,25,15,12,21.90
2016,05,25,15,13,21.90
2016,05,25,15,14,22.00
2016,05,25,15,15,22.00
2016,05,25,15,16,22.00
2016,05,25,15,17,22.00
2016,05,25,15,18,22.10
2016,05,25,15,19,22.00
2016,05,25,15,20,22.00
2016,05,25,15,21,21.90
2016,05,25,15,22,21.90
2016,05,25,15,23,22.00
2016,05,25,15,24,22.00
2016,05,25,15,25,22.10
2016,05,25,15,26,22.00
2016,05,25,15,27,21.90
2016,05,25,15,28,21.80
2016,05,25,15,29,21.70
2016,05,25,15,30,21.60
2016,05,25,15,31,21.40
2016,05,25,15,32,21.40
2016,05,25,15,33,21.30
2016,05,25,15,34,21.30
2016,05,25,15,35,21.30
2016,05,25,15,36,21.40
2016,05,25,15,37,21.50
2016,05,25,15,38,21.60
2016,05,25,15,39,21.70
2016,05,25,15,40,21.80
2016,05,25,15,41,21.80
2016,05,25,15,42,21.80
2016,05,25,15,43,21.90
2016,05,25,15,44,21.90
2016,05,25,15,45,21.80
2016,05,25,15,46,21.80
2016,05,25,15,47,21.70
2016,05,25,15,48,21.60
2016,05,25,15,49,21.50
2016,05,25,15,50,21.50
2016,05,25,15,51,21.50
2016,05,25,15,52,21.40
2016,05,25,15,53,21.40
2016,05,25,15,54,21.50
2016,05,25,15,55,21.50
2016,05,25,15,56,21.60
2016,05,25,15,57,21.60
2016,05,25,15,58,21.50
2016,05,25,15,59,21.50
2016,05,25,16,00,21.50
2016,05,25,16,01,21.50
2016,05,25,16,02,21.60
2016,05,25,16,03,21.60
2016,05,25,16,04,21.50
2016,05,25,16,05,21.40
2016,05,25,16,06,21.40
2016,05,25,16,07,21.40
2016,05,25,16,08,21.40
2016,05,25,16,09,21.40
2016,05,25,16,10,21.50
2016,05,25,16,11,21.50
2016,05,25,16,12,21.50
2016,05,25,16,13,21.50
2016,05,25,16,14,21.50
2016,05,25,16,15,21.60
2016,05,25,16,16,21.60
2016,05,25,16,17,21.60
2016,05,25,16,18,21.60
2016,05,25,16,19,21.70
2016,05,25,16,20,21.70
2016,05,25,16,21,21.70
2016,05,25,16,22,21.80
2016,05,25,16,23,21.90
2016,05,25,16,24,21.90
2016,05,25,16,25,21.90
2016,05,25,16,26,22.00
2016,05,25,16,27,22.00
2016,05,25,16,28,22.00
2016,05,25,16,29,22.00
2016,05,25,16,30,22.00
2016,05,25,16,31,21.90
2016,05,25,16,32,21.90
2016,05,25,16,33,21.90
2016,05,25,16,34,21.90
2016,05,25,16,35,21.80
2016,05,25,16,36,21.80
2016,05,25,16,37,21.80
2016,05,25,16,38,21.80
2016,05,25,16,39,21.80
2016,05,25,16,40,21.80
2016,05,25,16,41,21.80
2016,05,25,16,42,21.70
2016,05,25,16,43,21.70
2016,05,25,16,44,21.60
2016,05,25,16,45,21.60
2016,05,25,16,46,21.50
2016,05,25,16,47,21.50
2016,05,25,16,48,21.40
2016,05,25,16,49,21.40
2016,05,25,16,50,21.40
2016,05,25,16,51,21.30
2016,05,25,16,52,21.30
2016,05,25,16,53,21.30
2016,05,25,16,54,21.30
2016,05,25,16,55,21.30
2016,05,25,16,56,21.30
2016,05,25,16,57,21.30
2016,05,25,16,58,21.30
2016,05,25,16,59,21.20
2016,05,25,17,00,21.20
2016,05,25,17,01,21.20
2016,05,25,17,02,21.10
2016,05,25,17,03,21.10
2016,05,25,17,04,21.10
2016,05,25,17,05,21.00
2016,05,25,17,06,21.00
2016,05,25,17,07,20.90
2016,05,25,17,08,20.90
2016,05,25,17,09,20.90
2016,05,25,17,10,20.90
2016,05,25,17,11,20.90
2016,05,25,17,12,20.90
2016,05,25,17,13,20.90
2016,05,25,17,14,20.80
2016,05,25,17,15,20.80
2016,05,25,17,16,20.80
2016,05,25,17,17,20.80
2016,05,25,17,18,20.70
2016,05,25,17,19,20.70